Year,Month,Day,Hour,Minute,Value (Times are PST for temperature in C)
2020,10,24,00,00,5.00
2020,10,24,00,01,5.00
2020,10,24,00,02,5.00
2020,10,24,00,03,5.00
2020,10,24,00,04,5.00
2020,10,24,00,05,5.00
2020,10,24,00,06,5.10
2020,10,24,00,07,5.10
2020,10,24,00,08,5.10
2020,10,24,00,09,5.10
2020,10,24,00,10,5.10
2020,10,24,00,11,5.10
2020,10,24,00,12,5.10
2020,10,24,00,13,5.10
2020,10,24,00,14,5.10
2020,10,24,00,15,5.00
2020,10,24,00,16,5.10
2020,10,24,00,17,5.00
2020,10,24,00,18,5.00
2020,10,24,00,19,5.00
2020,10,24,00,20,5.00
2020,10,24,00,21,5.00
2020,10,24,00,22,5.00
2020,10,24,00,23,5.00
2020,10,24,00,24,5.00
2020,10,24,00,25,4.90
2020,10,24,00,26,4.90
2020,10,24,00,27,4.90
2020,10,24,00,28,4.90
2020,10,24,00,29,4.90
2020,10,24,00,30,4.90
2020,10,24,00,31,4.90
2020,10,24,00,32,4.90
2020,10,24,00,33,4.90
2020,10,24,00,34,4.90
2020,10,24,00,35,4.90
2020,10,24,00,36,4.90
2020,10,24,00,37,4.80
2020,10,24,00,38,4.80
2020,10,24,00,39,4.80
2020,10,24,00,40,4.80
2020,10,24,00,41,4.80
2020,10,24,00,42,4.80
2020,10,24,00,43,4.80
2020,10,24,00,44,4.80
2020,10,24,00,45,4.80
2020,10,24,00,46,4.80
2020,10,24,00,47,4.80
2020,10,24,00,48,4.80
2020,10,24,00,49,4.80
2020,10,24,00,50,4.80
2020,10,24,00,51,4.80
2020,10,24,00,52,4.80
2020,10,24,00,53,4.70
2020,10,24,00,54,4.70
2020,10,24,00,55,4.70
2020,10,24,00,56,4.70
2020,10,24,00,57,4.70
2020,10,24,00,58,4.70
2020,10,24,00,59,4.70
2020,10,24,01,00,4.70
2020,10,24,01,01,4.70
2020,10,24,01,02,4.70
2020,10,24,01,03,4.70
2020,10,24,01,04,4.70
2020,10,24,01,05,4.70
2020,10,24,01,06,4.70
2020,10,24,01,07,4.70
2020,10,24,01,08,4.70
2020,10,24,01,09,4.70
2020,10,24,01,10,4.70
2020,10,24,01,11,4.70
2020,10,24,01,12,4.70
2020,10,24,01,13,4.70
2020,10,24,01,14,4.70
2020,10,24,01,15,4.60
2020,10,24,01,16,4.60
2020,10,24,01,17,4.60
2020,10,24,01,18,4.70
2020,10,24,01,19,4.60
2020,10,24,01,20,4.60
2020,10,24,01,21,4.60
2020,10,24,01,22,4.60
2020,10,24,01,23,4.60
2020,10,24,01,24,4.60
2020,10,24,01,25,4.60
2020,10,24,01,26,4.60
2020,10,24,01,27,4.60
2020,10,24,01,28,4.60
2020,10,24,01,29,4.60
2020,10,24,01,30,4.60
2020,10,24,01,31,4.60
2020,10,24,01,32,4.60
2020,10,24,01,33,4.60
2020,10,24,01,34,4.60
2020,10,24,01,35,4.60
2020,10,24,01,36,4.60
2020,10,24,01,37,4.60
2020,10,24,01,38,4.60
2020,10,24,01,39,4.60
2020,10,24,01,40,4.60
2020,10,24,01,41,4.60
2020,10,24,01,42,4.60
2020,10,24,01,43,4.60
2020,10,24,01,44,4.60
2020,10,24,01,45,4.60
2020,10,24,01,46,4.60
2020,10,24,01,47,4.60
2020,10,24,01,48,4.60
2020,10,24,01,49,4.60
2020,10,24,01,50,4.60
2020,10,24,01,51,4.60
2020,10,24,01,52,4.60
2020,10,24,01,53,4.60
2020,10,24,01,54,4.60
2020,10,24,01,55,4.60
2020,10,24,01,56,4.60
2020,10,24,01,57,4.60
2020,10,24,01,58,4.60
2020,10,24,01,59,4.60
2020,10,24,02,00,4.60
2020,10,24,02,01,4.60
2020,10,24,02,02,4.60
2020,10,24,02,03,4.60
2020,10,24,02,04,4.60
2020,10,24,02,05,4.60
2020,10,24,02,06,4.60
2020,10,24,02,07,4.60
2020,10,24,02,08,4.60
2020,10,24,02,09,4.60
2020,10,24,02,10,4.60
2020,10,24,02,11,4.60
2020,10,24,02,12,4.60
2020,10,24,02,13,4.60
2020,10,24,02,14,4.60
2020,10,24,02,15,4.60
2020,10,24,02,16,4.60
2020,10,24,02,17,4.60
2020,10,24,02,18,4.60
2020,10,24,02,19,4.60
2020,10,24,02,20,4.60
2020,10,24,02,21,4.60
2020,10,24,02,22,4.60
2020,10,24,02,23,4.60
2020,10,24,02,24,4.60
2020,10,24,02,25,4.60
2020,10,24,02,26,4.60
2020,10,24,02,27,4.60
2020,10,24,02,28,4.60
2020,10,24,02,29,4.60
2020,10,24,02,30,4.60
2020,10,24,02,31,4.60
2020,10,24,02,32,4.60
2020,10,24,02,33,4.60
2020,10,24,02,34,4.60
2020,10,24,02,35,4.60
2020,10,24,02,36,4.60
2020,10,24,02,37,4.60
2020,10,24,02,38,4.60
2020,10,24,02,39,4.60
2020,10,24,02,40,4.60
2020,10,24,02,41,4.50
2020,10,24,02,42,4.50
2020,10,24,02,43,4.50
2020,10,24,02,44,4.50
2020,10,24,02,45,4.50
2020,10,24,02,46,4.60
2020,10,24,02,47,4.60
2020,10,24,02,48,4.60
2020,10,24,02,49,4.60
2020,10,24,02,50,4.60
2020,10,24,02,51,4.60
2020,10,24,02,52,4.60
2020,10,24,02,53,4.60
2020,10,24,02,54,4.60
2020,10,24,02,55,4.50
2020,10,24,02,56,4.50
2020,10,24,02,57,4.50
2020,10,24,02,58,4.50
2020,10,24,02,59,4.50
2020,10,24,03,00,4.50
2020,10,24,03,01,4.50
2020,10,24,03,02,4.50
2020,10,24,03,03,4.50
2020,10,24,03,04,4.50
2020,10,24,03,05,4.50
2020,10,24,03,06,4.50
2020,10,24,03,07,4.50
2020,10,24,03,08,4.60
2020,10,24,03,09,4.50
2020,10,24,03,10,4.50
2020,10,24,03,11,4.50
2020,10,24,03,12,4.60
2020,10,24,03,13,4.60
2020,10,24,03,14,4.60
2020,10,24,03,15,4.60
2020,10,24,03,16,4.60
2020,10,24,03,17,4.60
2020,10,24,03,18,4.60
2020,10,24,03,19,4.60
2020,10,24,03,20,4.60
2020,10,24,03,21,4.60
2020,10,24,03,22,4.60
2020,10,24,03,23,4.60
2020,10,24,03,24,4.60
2020,10,24,03,25,4.60
2020,10,24,03,26,4.50
2020,10,24,03,27,4.50
2020,10,24,03,28,4.50
2020,10,24,03,29,4.50
2020,10,24,03,30,4.50
2020,10,24,03,31,4.50
2020,10,24,03,32,4.50
2020,10,24,03,33,4.60
2020,10,24,03,34,4.60
2020,10,24,03,35,4.60
2020,10,24,03,36,4.60
2020,10,24,03,37,4.60
2020,10,24,03,38,4.60
2020,10,24,03,39,4.60
2020,10,24,03,40,4.60
2020,10,24,03,41,4.60
2020,10,24,03,42,4.60
2020,10,24,03,43,4.60
2020,10,24,03,44,4.60
2020,10,24,03,45,4.60
2020,10,24,03,46,4.60
2020,10,24,03,47,4.60
2020,10,24,03,48,4.60
2020,10,24,03,49,4.60
2020,10,24,03,50,4.60
2020,10,24,03,51,4.60
2020,10,24,03,52,4.60
2020,10,24,03,53,4.50
2020,10,24,03,54,4.50
2020,10,24,03,55,4.50
2020,10,24,03,56,4.50
2020,10,24,03,57,4.50
2020,10,24,03,58,4.50
2020,10,24,03,59,4.50
2020,10,24,04,00,4.50
2020,10,24,04,01,4.50
2020,10,24,04,02,4.50
2020,10,24,04,03,4.50
2020,10,24,04,04,4.50
2020,10,24,04,05,4.50
2020,10,24,04,06,4.50
2020,10,24,04,07,4.50
2020,10,24,04,08,4.50
2020,10,24,04,09,4.50
2020,10,24,04,10,4.50
2020,10,24,04,11,4.50
2020,10,24,04,12,4.50
2020,10,24,04,13,4.50
2020,10,24,04,14,4.50
2020,10,24,04,15,4.50
2020,10,24,04,16,4.50
2020,10,24,04,17,4.50
2020,10,24,04,18,4.50
2020,10,24,04,19,4.50
2020,10,24,04,20,4.50
2020,10,24,04,21,4.50
2020,10,24,04,22,4.50
2020,10,24,04,23,4.50
2020,10,24,04,24,4.50
2020,10,24,04,25,4.50
2020,10,24,04,26,4.50
2020,10,24,04,27,4.50
2020,10,24,04,28,4.50
2020,10,24,04,29,4.50
2020,10,24,04,30,4.50
2020,10,24,04,31,4.50
2020,10,24,04,32,4.50
2020,10,24,04,33,4.50
2020,10,24,04,34,4.40
2020,10,24,04,35,4.40
2020,10,24,04,36,4.40
2020,10,24,04,37,4.40
2020,10,24,04,38,4.40
2020,10,24,04,39,4.40
2020,10,24,04,40,4.40
2020,10,24,04,41,4.40
2020,10,24,04,42,4.40
2020,10,24,04,43,4.40
2020,10,24,04,44,4.40
2020,10,24,04,45,4.40
2020,10,24,04,46,4.40
2020,10,24,04,47,4.40
2020,10,24,04,48,4.40
2020,10,24,04,49,4.40
2020,10,24,04,50,4.40
2020,10,24,04,51,4.40
2020,10,24,04,52,4.40
2020,10,24,04,53,4.40
2020,10,24,04,54,4.40
2020,10,24,04,55,4.40
2020,10,24,04,56,4.40
2020,10,24,04,57,4.40
2020,10,24,04,58,4.40
2020,10,24,04,59,4.40
2020,10,24,05,00,4.40
2020,10,24,05,01,4.40
2020,10,24,05,02,4.40
2020,10,24,05,03,4.40
2020,10,24,05,04,4.40
2020,10,24,05,05,4.40
2020,10,24,05,06,4.30
2020,10,24,05,07,4.30
2020,10,24,05,08,4.30
2020,10,24,05,09,4.30
2020,10,24,05,10,4.30
2020,10,24,05,11,4.30
2020,10,24,05,12,4.30
2020,10,24,05,13,4.30
2020,10,24,05,14,4.30
2020,10,24,05,15,4.30
2020,10,24,05,16,4.30
2020,10,24,05,17,4.30
2020,10,24,05,18,4.30
2020,10,24,05,19,4.30
2020,10,24,05,20,4.30
2020,10,24,05,21,4.30
2020,10,24,05,22,4.30
2020,10,24,05,23,4.30
2020,10,24,05,24,4.30
2020,10,24,05,25,4.30
2020,10,24,05,26,4.30
2020,10,24,05,27,4.30
2020,10,24,05,28,4.30
2020,10,24,05,29,4.30
2020,10,24,05,30,4.30
2020,10,24,05,31,4.30
2020,10,24,05,32,4.30
2020,10,24,05,33,4.30
2020,10,24,05,34,4.30
2020,10,24,05,35,4.30
2020,10,24,05,36,4.30
2020,10,24,05,37,4.30
2020,10,24,05,38,4.30
2020,10,24,05,39,4.20
2020,10,24,05,40,4.20
2020,10,24,05,41,4.20
2020,10,24,05,42,4.20
2020,10,24,05,43,4.20
2020,10,24,05,44,4.20
2020,10,24,05,45,4.20
2020,10,24,05,46,4.20
2020,10,24,05,47,4.20
2020,10,24,05,48,4.20
2020,10,24,05,49,4.20
2020,10,24,05,50,4.20
2020,10,24,05,51,4.20
2020,10,24,05,52,4.20
2020,10,24,05,53,4.20
2020,10,24,05,54,4.20
2020,10,24,05,55,4.20
2020,10,24,05,56,4.20
2020,10,24,05,57,4.20
2020,10,24,05,58,4.20
2020,10,24,05,59,4.30
2020,10,24,06,00,4.30
2020,10,24,06,01,4.30
2020,10,24,06,02,4.30
2020,10,24,06,03,4.30
2020,10,24,06,04,4.30
2020,10,24,06,05,4.30
2020,10,24,06,06,4.30
2020,10,24,06,07,4.30
2020,10,24,06,08,4.30
2020,10,24,06,09,4.30
2020,10,24,06,10,4.30
2020,10,24,06,11,4.30
2020,10,24,06,12,4.30
2020,10,24,06,13,4.30
2020,10,24,06,14,4.30
2020,10,24,06,15,4.30
2020,10,24,06,16,4.30
2020,10,24,06,17,4.30
2020,10,24,06,18,4.30
2020,10,24,06,19,4.30
2020,10,24,06,20,4.30
2020,10,24,06,21,4.30
2020,10,24,06,22,4.30
2020,10,24,06,23,4.20
2020,10,24,06,24,4.20
2020,10,24,06,25,4.20
2020,10,24,06,26,4.20
2020,10,24,06,27,4.20
2020,10,24,06,28,4.30
2020,10,24,06,29,4.30
2020,10,24,06,30,4.30
2020,10,24,06,31,4.30
2020,10,24,06,32,4.40
2020,10,24,06,33,4.40
2020,10,24,06,34,4.40
2020,10,24,06,35,4.40
2020,10,24,06,36,4.40
2020,10,24,06,37,4.40
2020,10,24,06,38,4.40
2020,10,24,06,39,4.40
2020,10,24,06,40,4.40
2020,10,24,06,41,4.40
2020,10,24,06,42,4.40
2020,10,24,06,43,4.40
2020,10,24,06,44,4.40
2020,10,24,06,45,4.40
2020,10,24,06,46,4.30
2020,10,24,06,47,4.30
2020,10,24,06,48,4.30
2020,10,24,06,49,4.30
2020,10,24,06,50,4.30
2020,10,24,06,51,4.30
2020,10,24,06,52,4.30
2020,10,24,06,53,4.30
2020,10,24,06,54,4.30
2020,10,24,06,55,4.20
2020,10,24,06,56,4.20
2020,10,24,06,57,4.20
2020,10,24,06,58,4.20
2020,10,24,06,59,4.20
2020,10,24,07,00,4.20
2020,10,24,07,01,4.20
2020,10,24,07,02,4.20
2020,10,24,07,03,4.20
2020,10,24,07,04,4.20
2020,10,24,07,05,4.20
2020,10,24,10,29,5.90
2020,10,24,10,30,5.90
2020,10,24,10,31,5.90
2020,10,24,10,32,5.90
2020,10,24,10,33,5.90
2020,10,24,10,34,5.90
2020,10,24,10,35,5.90
2020,10,24,10,36,5.90
2020,10,24,10,37,5.90
2020,10,24,10,38,5.90
2020,10,24,10,39,5.90
2020,10,24,10,40,5.90
2020,10,24,10,41,5.90
2020,10,24,10,42,6.00
2020,10,24,10,43,6.00
2020,10,24,10,44,6.00
2020,10,24,10,45,6.00
2020,10,24,10,46,6.00
2020,10,24,10,47,6.00
2020,10,24,10,48,6.00
2020,10,24,10,49,6.00
2020,10,24,10,50,6.10
2020,10,24,10,51,6.00
2020,10,24,10,52,6.10
2020,10,24,10,53,6.10
2020,10,24,10,54,6.10
2020,10,24,10,55,6.10
2020,10,24,10,56,6.10
2020,10,24,10,57,6.10
2020,10,24,10,58,6.10
2020,10,24,10,59,6.20
2020,10,24,11,00,6.20
2020,10,24,11,01,6.20
2020,10,24,11,02,6.20
2020,10,24,11,03,6.20
2020,10,24,11,04,6.20
2020,10,24,11,05,6.20
2020,10,24,11,06,6.30
2020,10,24,11,07,6.30
2020,10,24,11,08,6.30
2020,10,24,11,09,6.30
2020,10,24,11,10,6.30
2020,10,24,11,11,6.30
2020,10,24,11,12,6.30
2020,10,24,11,13,6.30
2020,10,24,11,14,6.30
2020,10,24,11,15,6.30
2020,10,24,11,16,6.30
2020,10,24,11,17,6.30
2020,10,24,11,18,6.40
2020,10,24,11,19,6.40
2020,10,24,11,20,6.40
2020,10,24,11,21,6.40
2020,10,24,11,22,6.40
2020,10,24,11,23,6.50
2020,10,24,11,24,6.50
2020,10,24,11,25,6.50
2020,10,24,11,26,6.50
2020,10,24,11,27,6.50
2020,10,24,11,28,6.50
2020,10,24,11,29,6.50
2020,10,24,11,30,6.50
2020,10,24,11,31,6.60
2020,10,24,11,32,6.60
2020,10,24,11,33,6.60
2020,10,24,11,34,6.70
2020,10,24,11,35,6.70
2020,10,24,11,36,6.70
2020,10,24,11,37,6.70
2020,10,24,11,38,6.80
2020,10,24,11,39,6.80
2020,10,24,11,40,6.80
2020,10,24,11,41,6.80
2020,10,24,11,42,6.90
2020,10,24,11,43,6.90
2020,10,24,11,44,6.90
2020,10,24,11,45,6.90
2020,10,24,11,46,7.00
2020,10,24,11,47,7.00
2020,10,24,11,48,7.00
2020,10,24,11,49,7.00
2020,10,24,11,50,7.00
2020,10,24,11,51,7.10
2020,10,24,11,52,7.10
2020,10,24,11,53,7.10
2020,10,24,11,54,7.10
2020,10,24,11,55,7.10
2020,10,24,11,56,7.10
2020,10,24,11,57,7.10
2020,10,24,11,58,7.00
2020,10,24,11,59,7.00
2020,10,24,12,00,7.00
2020,10,24,12,01,7.00
2020,10,24,12,02,7.00
2020,10,24,12,03,7.00
2020,10,24,12,04,7.00
2020,10,24,12,05,7.00
2020,10,24,12,06,7.00
2020,10,24,12,07,7.00
2020,10,24,12,08,7.00
2020,10,24,12,09,7.00
2020,10,24,12,10,7.00
2020,10,24,12,11,7.00
2020,10,24,12,12,7.10
2020,10,24,12,13,7.10
2020,10,24,12,14,7.10
2020,10,24,12,15,7.10
2020,10,24,12,16,7.10
2020,10,24,12,17,7.20
2020,10,24,12,18,7.20
2020,10,24,12,19,7.20
2020,10,24,12,20,7.20
2020,10,24,12,21,7.20
2020,10,24,12,22,7.20
2020,10,24,12,23,7.30
2020,10,24,12,24,7.30
2020,10,24,12,25,7.30
2020,10,24,12,26,7.40
2020,10,24,12,27,7.40
2020,10,24,12,28,7.40
2020,10,24,12,29,7.40
2020,10,24,12,30,7.40
2020,10,24,12,31,7.40
2020,10,24,12,32,7.40
2020,10,24,12,33,7.40
2020,10,24,12,34,7.40
2020,10,24,12,35,7.40
2020,10,24,12,36,7.40
2020,10,24,12,37,7.40
2020,10,24,12,38,7.40
2020,10,24,12,39,7.40
2020,10,24,12,40,7.40
2020,10,24,12,41,7.40
2020,10,24,12,42,7.30
2020,10,24,12,43,7.30
2020,10,24,12,44,7.30
2020,10,24,12,45,7.30
2020,10,24,12,46,7.30
2020,10,24,12,47,7.30
2020,10,24,12,48,7.30
2020,10,24,12,49,7.30
2020,10,24,12,50,7.30
2020,10,24,12,51,7.30
2020,10,24,12,52,7.30
2020,10,24,12,53,7.30
2020,10,24,12,54,7.30
2020,10,24,12,55,7.30
2020,10,24,12,56,7.30
2020,10,24,12,57,7.30
2020,10,24,12,58,7.30
2020,10,24,12,59,7.40
2020,10,24,13,00,7.40
2020,10,24,13,01,7.40
2020,10,24,13,02,7.40
2020,10,24,13,03,7.40
2020,10,24,13,04,7.40
2020,10,24,13,05,7.40
2020,10,24,13,06,7.40
2020,10,24,13,07,7.50
2020,10,24,13,08,7.50
2020,10,24,13,09,7.60
2020,10,24,13,10,7.60
2020,10,24,13,11,7.60
2020,10,24,13,12,7.60
2020,10,24,13,13,7.70
2020,10,24,13,14,7.70
2020,10,24,13,15,7.70
2020,10,24,13,16,7.70
2020,10,24,13,17,7.80
2020,10,24,13,18,7.80
2020,10,24,13,19,7.80
2020,10,24,13,20,7.80
2020,10,24,13,21,7.80
2020,10,24,13,22,7.80
2020,10,24,13,23,7.80
2020,10,24,13,24,7.80
2020,10,24,13,25,7.80
2020,10,24,13,26,7.80
2020,10,24,13,27,7.80
2020,10,24,13,28,7.80
2020,10,24,13,29,7.70
2020,10,24,13,30,7.70
2020,10,24,13,31,7.70
2020,10,24,13,32,7.70
2020,10,24,13,33,7.70
2020,10,24,13,34,7.70
2020,10,24,13,35,7.70
2020,10,24,13,36,7.70
2020,10,24,13,37,7.80
2020,10,24,13,38,7.80
2020,10,24,13,39,7.80
2020,10,24,13,40,7.80
2020,10,24,13,41,7.80
2020,10,24,13,42,7.80
2020,10,24,13,43,7.80
2020,10,24,13,44,7.90
2020,10,24,13,45,7.90
2020,10,24,13,46,7.90
2020,10,24,13,47,7.90
2020,10,24,13,48,7.90
2020,10,24,13,49,7.90
2020,10,24,13,50,7.90
2020,10,24,13,51,7.90
2020,10,24,13,52,7.90
2020,10,24,13,53,7.90
2020,10,24,13,54,7.90
2020,10,24,13,55,7.90
2020,10,24,13,56,7.90
2020,10,24,13,57,7.90
2020,10,24,13,58,7.90
2020,10,24,13,59,7.90
2020,10,24,14,00,7.90
2020,10,24,14,01,7.90
2020,10,24,14,02,7.90
2020,10,24,14,03,7.90
2020,10,24,14,04,7.80
2020,10,24,14,05,7.80
2020,10,24,14,06,7.80
2020,10,24,14,07,7.80
2020,10,24,14,08,7.90
2020,10,24,14,09,7.80
2020,10,24,14,10,7.80
2020,10,24,14,11,7.80
2020,10,24,14,12,7.90
2020,10,24,14,13,7.80
2020,10,24,14,14,7.80
2020,10,24,14,15,7.80
2020,10,24,14,16,7.80
2020,10,24,14,17,7.80
2020,10,24,14,18,7.80
2020,10,24,14,19,7.80
2020,10,24,14,20,7.80
2020,10,24,14,21,7.80
2020,10,24,14,22,7.80
2020,10,24,14,23,7.90
2020,10,24,14,24,7.90
2020,10,24,14,25,7.90
2020,10,24,14,26,7.90
2020,10,24,14,27,7.90
2020,10,24,14,28,7.90
2020,10,24,14,29,7.90
2020,10,24,14,30,7.90
2020,10,24,14,31,7.90
2020,10,24,14,32,7.90
2020,10,24,14,33,7.80
2020,10,24,14,34,7.80
2020,10,24,14,35,7.80
2020,10,24,14,36,7.80
2020,10,24,14,37,7.80
2020,10,24,14,38,7.80
2020,10,24,14,39,7.80
2020,10,24,14,40,7.70
2020,10,24,14,41,7.70
2020,10,24,14,42,7.70
2020,10,24,14,43,7.80
2020,10,24,14,44,7.80
2020,10,24,14,45,7.80
2020,10,24,14,46,7.80
2020,10,24,14,47,7.80
2020,10,24,14,48,7.80
2020,10,24,14,49,7.80
2020,10,24,14,50,7.80
2020,10,24,14,51,7.80
2020,10,24,14,52,7.80
2020,10,24,14,53,7.80
2020,10,24,14,54,7.80
2020,10,24,14,55,7.80
2020,10,24,14,56,7.80
2020,10,24,14,57,7.80
2020,10,24,14,58,7.80
2020,10,24,14,59,7.80
2020,10,24,15,00,7.90
2020,10,24,15,01,7.90
2020,10,24,15,02,7.90
2020,10,24,15,03,7.90
2020,10,24,15,04,7.90
2020,10,24,15,05,7.90
2020,10,24,15,06,7.90
2020,10,24,15,07,7.90
2020,10,24,15,08,7.90
2020,10,24,15,09,7.90
2020,10,24,15,10,7.90
2020,10,24,15,11,7.90
2020,10,24,15,12,7.90
2020,10,24,15,13,7.90
2020,10,24,15,14,7.90
2020,10,24,15,15,7.80
2020,10,24,15,16,7.80
2020,10,24,15,17,7.80
2020,10,24,15,18,7.80
2020,10,24,15,19,7.80
2020,10,24,15,20,7.80
2020,10,24,15,21,7.80
2020,10,24,15,22,7.80
2020,10,24,15,23,7.80
2020,10,24,15,24,7.80
2020,10,24,15,25,7.90
2020,10,24,15,26,7.90
2020,10,24,15,27,7.90
2020,10,24,15,28,7.90
2020,10,24,15,29,7.90
2020,10,24,15,30,7.90
2020,10,24,15,31,8.00
2020,10,24,15,32,8.00
2020,10,24,15,33,8.00
2020,10,24,15,34,8.00
2020,10,24,15,35,8.00
2020,10,24,15,36,8.00
2020,10,24,15,37,8.00
2020,10,24,15,38,8.00
2020,10,24,15,39,8.00
2020,10,24,15,40,8.00
2020,10,24,15,41,8.00
2020,10,24,15,42,8.10
2020,10,24,15,43,8.10
2020,10,24,15,44,8.10
2020,10,24,15,45,8.10
2020,10,24,15,46,8.10
2020,10,24,15,47,8.10
2020,10,24,15,48,8.10
2020,10,24,15,49,8.10
2020,10,24,15,50,8.10
2020,10,24,15,51,8.10
2020,10,24,15,52,8.10
2020,10,24,15,53,8.10
2020,10,24,15,54,8.10
2020,10,24,15,55,8.10
2020,10,24,15,56,8.10
2020,10,24,15,57,8.10
2020,10,24,15,58,8.10
2020,10,24,15,59,8.00
2020,10,24,16,00,8.00
2020,10,24,16,01,7.90
2020,10,24,16,02,7.90
2020,10,24,16,03,7.90
2020,10,24,16,04,7.90
2020,10,24,16,05,7.90
2020,10,24,16,06,7.90
2020,10,24,16,07,7.90
2020,10,24,16,08,7.90
2020,10,24,16,09,7.90
2020,10,24,16,10,7.90
2020,10,24,16,11,7.90
2020,10,24,16,12,7.90
2020,10,24,16,13,7.90
2020,10,24,16,14,7.90
2020,10,24,16,15,7.90
2020,10,24,16,16,7.90
2020,10,24,16,17,7.90
2020,10,24,16,18,7.90
2020,10,24,16,19,7.90
2020,10,24,16,20,8.00
2020,10,24,16,21,8.00
2020,10,24,16,22,8.00
2020,10,24,16,23,8.00
2020,10,24,16,24,8.00
2020,10,24,16,25,8.00
2020,10,24,16,26,8.00
2020,10,24,16,27,8.00
2020,10,24,16,28,8.00
2020,10,24,16,29,8.00
2020,10,24,16,30,8.00
2020,10,24,16,31,8.00
2020,10,24,16,32,7.90
2020,10,24,16,33,7.90
2020,10,24,16,34,7.90
2020,10,24,16,35,7.90
2020,10,24,16,36,7.90
2020,10,24,16,37,7.90
2020,10,24,16,38,7.90
2020,10,24,16,39,7.90
2020,10,24,16,40,7.80
2020,10,24,16,41,7.80
2020,10,24,16,42,7.80
2020,10,24,16,43,7.80
2020,10,24,16,44,7.80
2020,10,24,16,45,7.80
2020,10,24,16,46,7.80
2020,10,24,16,47,7.80
2020,10,24,16,48,7.80
2020,10,24,16,49,7.80
2020,10,24,16,50,7.80
2020,10,24,16,51,7.70
2020,10,24,16,52,7.70
2020,10,24,16,53,7.70
2020,10,24,16,54,7.70
2020,10,24,16,55,7.70
2020,10,24,16,56,7.70
2020,10,24,16,57,7.70
2020,10,24,16,58,7.70
2020,10,24,16,59,7.70
2020,10,24,17,00,7.60
2020,10,24,17,01,7.60
2020,10,24,17,02,7.50
2020,10,24,17,03,7.40
2020,10,24,17,04,7.40
2020,10,24,17,05,7.30
2020,10,24,17,06,7.20
2020,10,24,17,07,7.10
2020,10,24,17,08,7.00
2020,10,24,17,09,7.00
2020,10,24,17,10,6.90
2020,10,24,17,11,6.80
2020,10,24,17,12,6.60
2020,10,24,17,13,6.60
2020,10,24,17,14,6.40
2020,10,24,17,15,6.30
2020,10,24,17,16,6.30
2020,10,24,17,17,6.20
2020,10,24,17,18,6.10
2020,10,24,17,19,6.00
2020,10,24,17,20,6.00
2020,10,24,17,21,5.90
2020,10,24,17,22,5.80
2020,10,24,17,23,5.80
2020,10,24,17,24,5.70
2020,10,24,17,25,5.60
2020,10,24,17,26,5.60
2020,10,24,17,27,5.50
2020,10,24,17,28,5.40
2020,10,24,17,29,5.40
2020,10,24,17,30,5.30
2020,10,24,17,31,5.20
2020,10,24,17,32,5.20
2020,10,24,17,33,5.10
2020,10,24,17,34,5.10
2020,10,24,17,35,5.00
2020,10,24,17,36,4.90
2020,10,24,17,37,4.90
2020,10,24,17,38,4.80
2020,10,24,17,39,4.70
2020,10,24,17,40,4.70
2020,10,24,17,41,4.60
2020,10,24,17,42,4.50
2020,10,24,17,43,4.50
2020,10,24,17,44,4.40
2020,10,24,17,45,4.40
2020,10,24,17,46,4.30
2020,10,24,17,47,4.30
2020,10,24,17,48,4.20
2020,10,24,17,49,4.20
2020,10,24,17,50,4.10
2020,10,24,17,51,4.10
2020,10,24,17,52,4.00
2020,10,24,17,53,4.00
2020,10,24,17,54,3.90
2020,10,24,17,55,3.90
2020,10,24,17,56,3.90
2020,10,24,17,57,3.80
2020,10,24,17,58,3.80
2020,10,24,17,59,3.80
2020,10,24,18,00,3.70
2020,10,24,18,01,3.70
2020,10,24,18,02,3.70
2020,10,24,18,03,3.60
2020,10,24,18,04,3.60
2020,10,24,18,05,3.60
2020,10,24,18,06,3.60
2020,10,24,18,07,3.50
2020,10,24,18,08,3.50
2020,10,24,18,09,3.40
2020,10,24,18,10,3.40
2020,10,24,18,11,3.40
2020,10,24,18,12,3.30
2020,10,24,18,13,3.30
2020,10,24,18,14,3.30
2020,10,24,18,15,3.20
2020,10,24,18,16,3.20
2020,10,24,18,17,3.20
2020,10,24,18,18,3.10
2020,10,24,18,19,3.10
2020,10,24,18,20,3.10
2020,10,24,18,21,3.00
2020,10,24,18,22,3.00
2020,10,24,18,23,3.00
2020,10,24,18,24,2.90
2020,10,24,18,25,2.90
2020,10,24,18,26,2.90
2020,10,24,18,27,2.90
2020,10,24,18,28,2.90
2020,10,24,18,29,2.90
2020,10,24,18,30,2.90
2020,10,24,18,31,2.80
2020,10,24,18,32,2.80
2020,10,24,18,33,2.80
2020,10,24,18,34,2.80
2020,10,24,18,35,2.80
2020,10,24,18,36,2.70
2020,10,24,18,37,2.70
2020,10,24,18,38,2.70
2020,10,24,18,39,2.70
2020,10,24,18,40,2.70
2020,10,24,18,41,2.70
2020,10,24,18,42,2.70
2020,10,24,18,43,2.70
2020,10,24,18,44,2.70
2020,10,24,18,45,2.70
2020,10,24,18,46,2.70
2020,10,24,18,47,2.70
2020,10,24,18,48,2.70
2020,10,24,18,49,2.70
2020,10,24,18,50,2.60
2020,10,24,18,51,2.60
2020,10,24,18,52,2.60
2020,10,24,18,53,2.60
2020,10,24,18,54,2.50
2020,10,24,18,55,2.50
2020,10,24,18,56,2.50
2020,10,24,18,57,2.40
2020,10,24,18,58,2.40
2020,10,24,18,59,2.40
2020,10,24,19,00,2.40
2020,10,24,19,01,2.30
2020,10,24,19,02,2.30
2020,10,24,19,03,2.30
2020,10,24,19,04,2.30
2020,10,24,19,05,2.30
2020,10,24,19,06,2.20
2020,10,24,19,07,2.20
2020,10,24,19,08,2.20
2020,10,24,19,09,2.20
2020,10,24,19,10,2.20
2020,10,24,19,11,2.20
2020,10,24,19,12,2.20
2020,10,24,19,13,2.10
2020,10,24,19,14,2.10
2020,10,24,19,15,2.10
2020,10,24,19,16,2.10
2020,10,24,19,17,2.10
2020,10,24,19,18,2.10
2020,10,24,19,19,2.10
2020,10,24,19,20,2.20
2020,10,24,19,21,2.20
2020,10,24,19,22,2.20
2020,10,24,19,23,2.20
2020,10,24,19,24,2.20
2020,10,24,19,25,2.20
2020,10,24,19,26,2.20
2020,10,24,19,27,2.20
2020,10,24,19,28,2.20
2020,10,24,19,29,2.20
2020,10,24,19,30,2.20
2020,10,24,19,31,2.20
2020,10,24,19,32,2.20
2020,10,24,19,33,2.20
2020,10,24,19,34,2.20
2020,10,24,19,35,2.10
2020,10,24,19,36,2.10
2020,10,24,19,37,2.10
2020,10,24,19,38,2.00
2020,10,24,19,39,2.00
2020,10,24,19,40,2.00
2020,10,24,19,41,1.90
2020,10,24,19,42,1.90
2020,10,24,19,43,1.90
2020,10,24,19,44,1.80
2020,10,24,19,45,1.80
2020,10,24,19,46,1.80
2020,10,24,19,47,1.70
2020,10,24,19,48,1.70
2020,10,24,19,49,1.70
2020,10,24,19,50,1.60
2020,10,24,19,51,1.60
2020,10,24,19,52,1.50
2020,10,24,19,53,1.50
2020,10,24,19,54,1.50
2020,10,24,19,55,1.40
2020,10,24,19,56,1.40
2020,10,24,19,57,1.40
2020,10,24,19,58,1.30
2020,10,24,19,59,1.30
2020,10,24,20,00,1.30
2020,10,24,20,01,1.30
2020,10,24,20,02,1.20
2020,10,24,20,03,1.20
2020,10,24,20,04,1.20
2020,10,24,20,05,1.20
2020,10,24,20,06,1.10
2020,10,24,20,07,1.10
2020,10,24,20,08,1.10
2020,10,24,20,09,1.10
2020,10,24,20,10,1.10
2020,10,24,20,11,1.00
2020,10,24,20,12,1.00
2020,10,24,20,13,1.00
2020,10,24,20,14,1.00
2020,10,24,20,15,0.90
2020,10,24,20,16,0.90
2020,10,24,20,17,0.90
2020,10,24,20,18,0.90
2020,10,24,20,19,0.80
2020,10,24,20,20,0.80
2020,10,24,20,21,0.80
2020,10,24,20,22,0.80
2020,10,24,20,23,0.80
2020,10,24,20,24,0.80
2020,10,24,20,25,0.80
2020,10,24,20,26,0.80
2020,10,24,20,27,0.80
2020,10,24,20,28,0.80
2020,10,24,20,29,0.80
2020,10,24,20,30,0.80
2020,10,24,20,31,0.80
2020,10,24,20,32,0.80
2020,10,24,20,33,0.80
2020,10,24,20,34,0.70
2020,10,24,20,35,0.70
2020,10,24,20,36,0.70
2020,10,24,20,37,0.70
2020,10,24,20,38,0.70
2020,10,24,20,39,0.70
2020,10,24,20,40,0.70
2020,10,24,20,41,0.70
2020,10,24,20,42,0.70
2020,10,24,20,43,0.70
2020,10,24,20,44,0.70
2020,10,24,20,45,0.80
2020,10,24,20,46,0.80
2020,10,24,20,47,0.80
2020,10,24,20,48,0.80
2020,10,24,20,49,0.80
2020,10,24,20,50,0.80
2020,10,24,20,51,0.80
2020,10,24,20,52,0.90
2020,10,24,20,53,0.90
2020,10,24,20,54,0.90
2020,10,24,20,55,0.90
2020,10,24,20,56,1.00
2020,10,24,20,57,1.10
2020,10,24,20,58,1.20
2020,10,24,20,59,1.30
2020,10,24,21,00,1.50
2020,10,24,21,01,1.70
2020,10,24,21,02,1.80
2020,10,24,21,03,1.90
2020,10,24,21,04,2.10
2020,10,24,21,05,2.20
2020,10,24,21,06,2.30
2020,10,24,21,07,2.40
2020,10,24,21,08,2.50
2020,10,24,21,09,2.60
2020,10,24,21,10,2.70
2020,10,24,21,11,2.80
2020,10,24,21,12,2.90
2020,10,24,21,13,3.00
2020,10,24,21,14,3.10
2020,10,24,21,15,3.20
2020,10,24,21,16,3.30
2020,10,24,21,17,3.40
2020,10,24,21,18,3.40
2020,10,24,21,19,3.50
2020,10,24,21,20,3.60
2020,10,24,21,21,3.60
2020,10,24,21,22,3.70
2020,10,24,21,23,3.70
2020,10,24,21,24,3.70
2020,10,24,21,25,3.80
2020,10,24,21,26,3.80
2020,10,24,21,27,3.80
2020,10,24,21,28,3.80
2020,10,24,21,29,3.90